Weather History for Phuket, Thailand

Change the Weather History Date:

Monday, January 14, 2013

  Actual Average Record
Temperature  
Mean Temperature 79 °F -  
Max Temperature 87 °F 90 °F 95 °F (1997)
Min Temperature 71 °F 74 °F 71 °F (2000)
Cooling Degree Days 14    
Growing Degree Days 29 (Base 50)    
Moisture  
Dew Point 71 °F    
Average Humidity 74    
Maximum Humidity 94    
Minimum Humidity 51    
Precipitation  
Precipitation 0.00 in 0.05 in - ()
Sea Level Pressure  
Sea Level Pressure 29.86 in    
Wind  
Wind Speed 3 mph ()    
Max Wind Speed 12 mph    
Max Gust Speed -    
Visibility 5.9 miles    
Events      
Averages and records for this station are not official NWS values.
T = Trace of Precipitation, MM = Missing Value Source: Averaged Metar Reports

Daily Weather History Graph

Daily Weather History Graph

Search for Another Location

Airport:

Trip Planner

Search our weather history database for the weather conditions in past years. The results will help you decide how hot, cold, wet, or windy it might be!

Date:

Astronomy

Jan. 14, 2013 Rise Set
Actual Time 6:44 AM ICT 6:26 PM ICT
Civil Twilight 6:22 AM ICT 6:49 PM ICT
Nautical Twilight 5:56 AM ICT 7:15 PM ICT
Astronomical Twilight 5:30 AM ICT 7:40 PM ICT
Moon 8:38 AM ICT (1/14) 8:53 PM ICT (1/14)
Length of Visible Light 12h 26m
Length of Day
11h 41m
Waxing Crescent, 8% of the Moon is Illuminated
Jan 14
Waxing Crescent
Jan 19
First Quarter
Jan 27
Full
Feb 3
Last Quarter
Feb 10
New

Hourly Weather History & Observations

Time (ICT) Temp. Heat Index Dew Point Humidity Pressure Visibility Wind Dir Wind Speed Gust Speed Precip Events Conditions
12:00 AM 78.8 °F - 69.8 °F 74% 29.89 in 5.6 mi ENE 3.5 mph - N/A   Scattered Clouds
12:30 AM 77.0 °F - 71.6 °F 83% 29.86 in 5.6 mi Variable 2.3 mph - N/A   Scattered Clouds
1:00 AM 76 °F - 72 °F 85% 29.83 in 6 mi Calm Calm - -   Scattered Clouds
1:00 AM 75.2 °F - 71.6 °F 89% 29.86 in 5.6 mi Calm Calm - N/A   Scattered Clouds
1:30 AM 75.2 °F - 69.8 °F 83% 29.86 in 5.6 mi Calm Calm - N/A   Scattered Clouds
2:00 AM 73.4 °F - 69.8 °F 88% 29.86 in 5.6 mi Calm Calm - N/A   Scattered Clouds
2:30 AM 73.4 °F - 69.8 °F 88% 29.86 in 5.6 mi Calm Calm - N/A   Scattered Clouds
3:00 AM 73.4 °F - 69.8 °F 88% 29.86 in 5.6 mi Calm Calm - N/A   Scattered Clouds
3:30 AM 73.4 °F - 69.8 °F 88% 29.86 in 5.6 mi Calm Calm - N/A   Scattered Clouds
4:00 AM 73.4 °F - 69.8 °F 88% 29.83 in 5.6 mi Variable 1.2 mph - N/A   Scattered Clouds
4:30 AM 73.4 °F - 69.8 °F 88% 29.83 in 5.6 mi Calm Calm - N/A   Scattered Clouds
5:00 AM 73.4 °F - 69.8 °F 88% 29.86 in 5.6 mi Calm Calm - N/A   Scattered Clouds
5:30 AM 73.4 °F - 71.6 °F 94% 29.86 in 5.6 mi Calm Calm - N/A   Scattered Clouds
6:00 AM 73.4 °F - 71.6 °F 94% 29.86 in 5.6 mi Calm Calm - N/A   Scattered Clouds
6:30 AM 73.4 °F - 71.6 °F 94% 29.86 in 5.6 mi Calm Calm - N/A   Scattered Clouds
7:00 AM 73 °F - 71 °F 93% 29.84 in 5 mi Calm Calm - -   Mist
7:00 AM 73.4 °F - 71.6 °F 94% 29.89 in 5.0 mi Calm Calm - N/A   Scattered Clouds
7:30 AM 75.2 °F - 71.6 °F 89% 29.89 in 5.6 mi Calm Calm - N/A   Scattered Clouds
8:00 AM 77.0 °F - 73.4 °F 89% 29.89 in 5.0 mi Calm Calm - N/A   Scattered Clouds
8:30 AM 80.6 °F 84.6 °F 71.6 °F 74% 29.89 in 5.6 mi Calm Calm - N/A   Scattered Clouds
9:00 AM 82.4 °F 87.2 °F 71.6 °F 70% 29.92 in 5.6 mi ENE 4.6 mph - N/A   Scattered Clouds
9:30 AM 84.2 °F 89.6 °F 71.6 °F 66% 29.92 in 5.6 mi NNE 4.6 mph - N/A   Scattered Clouds
10:00 AM 84.2 °F 89.6 °F 71.6 °F 66% 29.92 in 5.6 mi NNE 5.8 mph - N/A   Scattered Clouds
10:30 AM 84.2 °F 88.4 °F 69.8 °F 62% 29.89 in 5.6 mi East 6.9 mph - N/A   Scattered Clouds
11:00 AM 86.0 °F 90.4 °F 69.8 °F 58% 29.89 in 5.6 mi East 6.9 mph - N/A   Scattered Clouds
11:30 AM 86.0 °F 91.8 °F 71.6 °F 62% 29.89 in 6.2 mi WNW 8.1 mph - N/A   Scattered Clouds
12:00 PM 84.2 °F 89.6 °F 71.6 °F 66% 29.86 in 6.2 mi WNW 10.4 mph - N/A   Scattered Clouds
12:30 PM 87.8 °F 93.8 °F 71.6 °F 58% 29.86 in 6.2 mi West 11.5 mph - N/A   Scattered Clouds
1:00 PM 87 °F - 72 °F 51% 29.84 in 6 mi WNW 6.9 mph - -   Scattered Clouds
1:00 PM 87.8 °F 92.6 °F 69.8 °F 55% 29.86 in 6.2 mi West 8.1 mph - N/A   Scattered Clouds
1:30 PM 87.8 °F 93.8 °F 71.6 °F 58% 29.83 in 6.2 mi West 5.8 mph - N/A   Scattered Clouds
2:00 PM 87.8 °F 93.8 °F 71.6 °F 58% 29.80 in 6.2 mi West 11.5 mph - N/A   Scattered Clouds
2:30 PM 86.0 °F 91.8 °F 71.6 °F 62% 29.80 in 6.2 mi WNW 9.2 mph - N/A   Scattered Clouds
3:00 PM 87.8 °F 93.8 °F 71.6 °F 58% 29.80 in 6.2 mi West 10.4 mph - N/A   Scattered Clouds
3:30 PM 86.0 °F 91.8 °F 71.6 °F 62% 29.80 in 6.2 mi West 9.2 mph - N/A   Scattered Clouds
4:00 PM 86.0 °F 91.8 °F 71.6 °F 62% 29.80 in 6.2 mi West 8.1 mph - N/A   Scattered Clouds
4:30 PM 86.0 °F 91.8 °F 71.6 °F 62% 29.83 in 6.2 mi WNW 11.5 mph - N/A   Scattered Clouds
5:00 PM 86.0 °F 91.8 °F 71.6 °F 62% 29.83 in 6.2 mi WNW 9.2 mph - N/A   Scattered Clouds
5:30 PM 84.2 °F 89.6 °F 71.6 °F 66% 29.83 in 6.2 mi WNW 8.1 mph - N/A   Scattered Clouds
6:00 PM 84.2 °F 89.6 °F 71.6 °F 66% 29.83 in 6.2 mi WNW 8.1 mph - N/A   Scattered Clouds
6:30 PM 82.4 °F 87.2 °F 71.6 °F 70% 29.83 in 6.2 mi West 5.8 mph - N/A   Scattered Clouds
7:00 PM 84 °F - 73 °F 63% 29.81 in 6 mi West 6.9 mph - -   Scattered Clouds
7:00 PM 82.4 °F 87.2 °F 71.6 °F 70% 29.86 in 6.2 mi West 5.8 mph - N/A   Scattered Clouds
7:30 PM 82.4 °F 87.2 °F 71.6 °F 70% 29.86 in 6.2 mi West 5.8 mph - N/A   Scattered Clouds
8:00 PM 82.4 °F 87.2 °F 71.6 °F 70% 29.86 in 6.2 mi WNW 5.8 mph - N/A   Scattered Clouds
8:30 PM 80.6 °F 84.6 °F 71.6 °F 74% 29.86 in 6.2 mi WNW 5.8 mph - N/A   Scattered Clouds
9:00 PM 80.6 °F 84.6 °F 71.6 °F 74% 29.89 in 6.2 mi WNW 6.9 mph - N/A   Scattered Clouds
9:30 PM 80.6 °F 84.6 °F 71.6 °F 74% 29.89 in 6.2 mi WNW 8.1 mph - N/A   Scattered Clouds
10:00 PM 80.6 °F 84.6 °F 71.6 °F 74% 29.89 in 6.2 mi NW 9.2 mph - N/A   Partly Cloudy
10:30 PM 80.6 °F 84.6 °F 71.6 °F 74% 29.89 in 6.2 mi Calm Calm - N/A   Partly Cloudy
11:00 PM 78.8 °F - 71.6 °F 78% 29.89 in 6.2 mi Calm Calm - N/A   Partly Cloudy
11:30 PM 77.0 °F - 71.6 °F 83% 29.89 in 6.2 mi Calm Calm - N/A   Partly Cloudy